GW5538 Weather Reports


Display with metric or nautical units.
time (UTC)temp
F
wind
direction
speed
MPH
gust
MPH
rain 1hr
in
rain 24hr
in
rain mn
in
humidity
%
barometer
mb
20260508121754 45 70 4.0 11.0 0.00 0.01 0.01 88 1017.6
20260508121253 45 58 9.0 14.0 0.00 0.01 0.01 87 1017.6
20260508120749 45 40 7.0 13.0 0.00 0.01 0.01 87 1017.6
20260508120248 45 39 7.0 11.0 0.00 0.01 0.01 87 1017.8
20260508115745 45 58 7.0 15.0 0.00 0.01 0.01 86 1017.8
20260508115242 45 22 7.0 14.0 0.05 0.01 0.01 86 1017.8
20260508114733 45 79 4.0 15.0 0.05 0.01 0.01 86 1017.9
20260508114230 46 51 4.0 10.0 0.00 0.00 0.00 85 1017.8
20260508113727 46 48 8.0 15.0 0.00 0.00 0.00 85 1017.7
20260508113225 46 62 8.0 15.0 0.00 0.00 0.00 84 1017.6
20260508112720 46 51 5.0 9.0 0.00 0.00 0.00 84 1017.6
20260508112218 46 34 9.0 11.0 0.00 0.00 0.00 84 1017.8
20260508111714 46 77 4.0 11.0 0.00 0.00 0.00 84 1017.6
20260508111212 46 54 7.0 15.0 0.00 0.00 0.00 84 1017.5
20260508110709 46 46 4.0 16.0 0.00 0.00 0.00 83 1017.5
20260508110206 46 36 5.0 10.0 0.00 0.00 0.00 84 1017.5
20260508105706 46 37 3.0 10.0 0.00 0.00 0.00 84 1017.4
20260508105203 46 64 3.0 10.0 0.00 0.00 0.00 84 1017.3
20260508104700 46 42 8.0 13.0 0.00 0.00 0.00 84 1017.2
20260508104157 46 67 6.0 16.0 0.00 0.00 0.00 84 1017.3
20260508103654 46 65 8.0 15.0 0.00 0.00 0.00 86 1017.2
20260508103151 46 58 5.0 9.0 0.00 0.00 0.00 88 1017.0
20260508102649 46 69 4.0 7.0 0.00 0.00 0.00 88 1017.3
20260508102147 46 41 6.0 11.0 0.00 0.00 0.00 87 1017.5
20260508101643 46 71 7.0 11.0 0.00 0.00 0.00 86 1017.2
20260508101141 46 36 4.0 7.0 0.00 0.00 0.00 85 1017.1
20260508100638 46 43 5.0 9.0 0.00 0.00 0.00 85 1017.2
20260508100137 46 73 8.0 9.0 0.00 0.00 0.00 85 1017.1
20260508095633 46 44 2.0 9.0 0.00 0.00 0.00 86 1017.0
20260508095130 46 58 9.0 13.0 0.00 0.00 0.00 86 1017.0
20260508094627 45 29 4.0 10.0 0.00 0.00 0.00 86 1017.1
20260508094123 45 69 8.0 11.0 0.00 0.00 0.00 86 1017.1
20260508093621 45 85 7.0 13.0 0.00 0.00 0.00 86 1017.1
20260508093118 45 54 5.0 10.0 0.00 0.00 0.00 86 1017.1
20260508092615 45 36 5.0 10.0 0.00 0.00 0.00 86 1017.2
20260508092114 45 77 5.0 10.0 0.00 0.00 0.00 86 1017.2
20260508091611 45 50 9.0 14.0 0.00 0.00 0.00 86 1017.1
20260508091108 45 60 13.0 17.0 0.00 0.00 0.00 86 1017.0
20260508090606 45 89 7.0 14.0 0.00 0.00 0.00 87 1016.9
20260508090103 45 54 4.0 14.0 0.00 0.00 0.00 87 1017.0
20260508085559 45 70 7.0 10.0 0.00 0.00 0.00 88 1017.1
20260508085056 45 43 8.0 14.0 0.00 0.00 0.00 88 1017.0
20260508084552 45 53 5.0 11.0 0.00 0.00 0.00 88 1017.0
20260508084050 44 72 5.0 15.0 0.00 0.00 0.00 88 1017.0
20260508083547 44 58 7.0 11.0 0.00 0.00 0.00 88 1016.8
20260508083043 44 43 8.0 14.0 0.00 0.00 0.00 88 1017.0
20260508082539 44 73 9.0 14.0 0.00 0.00 0.00 88 1016.9
20260508082037 44 48 5.0 13.0 0.00 0.00 0.00 88 1016.9
20260508081534 45 19 4.0 10.0 0.00 0.00 0.00 88 1017.0
20260508081030 45 66 5.0 11.0 0.00 0.00 0.00 88 1016.8
20260508080528 45 52 6.0 15.0 0.00 0.00 0.00 88 1017.0
20260508080025 45 64 3.0 14.0 0.00 0.00 0.00 88 1016.9
20260508075522 45 75 4.0 8.0 0.00 0.00 0.00 88 1016.7
20260508075019 45 65 3.0 9.0 0.00 0.00 0.00 88 1016.6
20260508074517 45 33 4.0 10.0 0.00 0.00 0.00 88 1016.8
20260508074013 44 92 6.0 9.0 0.00 0.00 0.00 88 1016.9
20260508073511 44 59 6.0 10.0 0.00 0.00 0.00 88 1016.4
20260508073008 44 31 7.0 10.0 0.00 0.00 0.00 89 1016.7
20260508072504 44 62 8.0 13.0 0.00 0.00 0.00 88 1016.5
20260508072001 44 78 4.0 7.0 0.00 0.00 0.00 89 1016.7
20260508071459 44 56 4.0 11.0 0.00 0.00 0.00 88 1016.4
20260508070956 44 61 4.0 15.0 0.00 0.00 0.00 89 1016.4
20260508070454 44 74 8.0 10.0 0.00 0.00 0.00 89 1016.5
20260508065952 44 88 6.0 10.0 0.00 0.00 0.00 89 1016.4
20260508065450 45 69 2.0 8.0 0.00 0.00 0.00 89 1016.6
20260508064948 45 49 7.0 9.0 0.00 0.00 0.00 89 1016.4
20260508064445 44 50 6.0 9.0 0.00 0.00 0.00 89 1016.2
20260508063943 44 47 10.0 15.0 0.00 0.00 0.00 89 1016.2
20260508063440 45 77 5.0 8.0 0.00 0.00 0.00 89 1016.3
20260508062938 44 34 4.0 10.0 0.00 0.00 0.00 89 1016.2
20260508062435 44 78 4.0 10.0 0.00 0.00 0.00 89 1016.4
20260508061932 44 241 6.0 15.0 0.00 0.00 0.00 89 1016.1
20260508061429 44 67 9.0 23.0 0.00 0.00 0.00 90 1016.2
20260508060925 44 41 4.0 9.0 0.00 0.00 0.00 90 1016.3
20260508060423 44 81 7.0 11.0 0.00 0.00 0.00 91 1016.2
20260508055919 44 36 5.0 13.0 0.00 0.00 0.00 91 1016.2
20260508055416 44 50 3.0 11.0 0.00 0.00 0.00 92 1016.1
20260508054912 44 85 1.0 9.0 0.00 0.00 0.00 92 1016.2
20260508054410 44 27 10.0 16.0 0.00 0.00 0.00 92 1016.3
20260508053906 44 47 3.0 6.0 0.00 0.00 0.00 93 1016.3
20260508053404 44 64 2.0 14.0 0.00 0.00 0.00 94 1016.1
20260508052901 44 70 9.0 15.0 0.00 0.00 0.00 94 1016.1
20260508052359 44 45 4.0 11.0 0.00 0.00 0.00 94 1016.1
20260508051854 44 70 7.0 15.0 0.00 0.00 0.00 95 1016.0
20260508051350 44 61 3.0 10.0 0.00 0.00 0.00 95 1016.1
20260508050846 44 55 6.0 9.0 0.00 0.00 0.00 95 1016.1
20260508050344 44 73 6.0 13.0 0.00 0.00 0.00 95 1016.0
20260508045839 44 63 1.0 7.0 0.00 0.00 0.00 96 1016.0
20260508045337 44 66 4.0 10.0 0.00 0.00 0.00 96 1015.9
20260508044835 44 46 6.0 9.0 0.00 0.00 0.00 96 1015.8
20260508044331 44 47 4.0 7.0 0.00 0.00 0.00 96 1015.9
20260508043827 44 42 6.0 9.0 0.00 0.00 0.00 96 1016.0
20260508043324 44 63 5.0 10.0 0.00 0.00 0.00 96 1015.9
20260508042821 44 30 4.0 11.0 0.00 0.00 0.00 97 1015.8
20260508042319 44 23 8.0 11.0 0.00 0.00 0.00 97 1015.7
20260508041815 44 55 2.0 11.0 0.00 0.00 0.00 97 1015.8
20260508041312 44 61 3.0 10.0 0.00 0.00 0.00 97 1015.7
20260508040808 44 12 6.0 13.0 0.00 0.00 0.00 97 1015.9
20260508040306 44 28 6.0 8.0 0.00 0.00 0.00 97 1015.7
20260508035803 44 63 2.0 10.0 0.00 0.00 0.00 97 1015.8
20260508035300 44 12 7.0 10.0 0.00 0.00 0.00 97 1015.4
20260508034756 44 43 6.0 10.0 0.00 0.00 0.00 97 1015.5
20260508034254 44 49 4.0 10.0 0.00 0.00 0.00 97 1015.5
20260508033751 44 74 3.0 8.0 0.00 0.00 0.00 97 1015.3
20260508033249 44 49 4.0 11.0 0.00 0.00 0.00 97 1015.4
20260508032746 44 70 3.0 9.0 0.00 0.00 0.00 97 1015.4
20260508032243 44 53 6.0 11.0 0.00 0.00 0.00 97 1015.4
20260508031740 44 46 1.0 8.0 0.00 0.00 0.00 97 1015.4
20260508031236 44 57 5.0 10.0 0.00 0.00 0.00 97 1015.3
20260508030733 44 62 3.0 9.0 0.00 0.00 0.00 97 1015.4
20260508030230 44 27 3.0 7.0 0.00 0.00 0.00 97 1015.4
20260508025727 44 61 7.0 10.0 0.00 0.00 0.00 97 1015.3
20260508025224 45 33 2.0 8.0 0.00 0.00 0.00 97 1015.2
20260508024720 45 26 5.0 9.0 0.00 0.00 0.00 97 1015.0
20260508024217 45 54 3.0 6.0 0.00 0.00 0.00 97 1015.2
20260508023713 45 48 2.0 6.0 0.00 0.00 0.00 97 1015.0
20260508023211 45 75 2.0 7.0 0.00 0.00 0.00 96 1015.1
20260508022707 45 49 3.0 8.0 0.00 0.00 0.00 97 1015.0
20260508022204 45 57 3.0 8.0 0.00 0.00 0.00 96 1015.0
20260508021700 45 74 3.0 10.0 0.00 0.00 0.00 97 1015.1
20260508021155 45 53 2.0 6.0 0.00 0.00 0.00 96 1015.0
20260508020654 45 342 4.0 4.0 0.00 0.00 0.00 96 1015.1
20260508020151 45 71 3.0 8.0 0.00 0.00 0.00 96 1015.1
20260508015648 45 30 6.0 10.0 0.00 0.00 0.00 96 1015.0
20260508015145 45 73 3.0 4.0 0.00 0.00 0.00 96 1014.8
20260508014641 45 66 2.0 6.0 0.00 0.00 0.00 96 1014.9
20260508014137 45 13 2.0 7.0 0.00 0.00 0.00 96 1014.8
20260508013634 45 38 4.0 7.0 0.00 0.00 0.00 96 1015.0
20260508013131 45 38 5.0 6.0 0.00 0.00 0.00 96 1015.1
20260508012628 46 42 3.0 10.0 0.00 0.00 0.00 96 1014.8
20260508012125 46 61 4.0 8.0 0.00 0.00 0.00 96 1014.7
20260508011624 46 95 4.0 7.0 0.00 0.00 0.00 96 1014.8
20260508011121 46 74 3.0 6.0 0.00 0.00 0.00 96 1014.9
20260508010617 46 21 4.0 7.0 0.00 0.00 0.00 96 1014.8
20260508010115 46 20 4.0 9.0 0.00 0.00 0.00 96 1015.0
20260508005611 46 49 5.0 9.0 0.00 0.00 0.00 96 1014.8
20260508005108 46 357 2.0 6.0 0.00 0.00 0.00 96 1014.9
20260508004604 46 53 2.0 6.0 0.00 0.00 0.00 96 1014.9
20260508004101 46 76 3.0 8.0 0.00 0.00 0.00 96 1015.0
20260508003557 46 16 4.0 9.0 0.00 0.00 0.00 96 1014.9
20260508003055 46 40 3.0 4.0 0.00 0.00 0.00 96 1014.8
20260508002551 46 55 1.0 7.0 0.00 0.00 0.00 95 1015.0
20260508002049 46 86 5.0 6.0 0.00 0.00 0.00 95 1015.1
20260508001544 46 31 3.0 3.0 0.00 0.00 0.00 95 1014.9
20260508001040 46 62 4.0 7.0 0.00 0.00 0.00 95 1015.0
20260508000536 46 26 3.0 4.0 0.00 0.00 0.00 95 1014.9
20260508000034 46 86 4.0 6.0 0.00 0.00 0.00 95 1014.8
20260507235531 46 62 3.0 6.0 0.00 0.00 0.00 95 1014.7
20260507235028 46 66 1.0 6.0 0.00 0.00 0.00 95 1014.6
20260507234524 46 70 1.0 7.0 0.00 0.00 0.00 95 1014.6
20260507234021 46 72 3.0 9.0 0.00 0.00 0.00 95 1014.7
20260507233518 46 58 1.0 3.0 0.00 0.00 0.00 95 1014.2
20260507233017 46 54 4.0 7.0 0.00 0.00 0.00 95 1014.5
20260507232512 46 65 5.0 9.0 0.00 0.00 0.00 95 1014.4
20260507232010 46 83 1.0 3.0 0.00 0.00 0.00 95 1014.4
20260507231506 46 51 3.0 3.0 0.00 0.00 0.00 95 1014.7
20260507231003 46 39 4.0 7.0 0.00 0.00 0.00 95 1014.4
20260507230500 47 58 1.0 7.0 0.00 0.00 0.00 94 1014.4
20260507225955 47 51 3.0 6.0 0.00 0.00 0.00 95 1014.6
20260507225452 47 43 3.0 7.0 0.00 0.00 0.00 94 1014.7
20260507224948 47 47 3.0 6.0 0.00 0.00 0.00 94 1014.5
20260507224444 47 84 2.0 7.0 0.00 0.00 0.00 94 1014.4
20260507223941 47 55 2.0 7.0 0.00 0.00 0.00 94 1014.4
20260507223437 47 20 3.0 6.0 0.00 0.00 0.00 94 1014.2
20260507222934 47 37 4.0 7.0 0.00 0.00 0.00 94 1014.2
20260507222431 47 78 1.0 6.0 0.00 0.00 0.00 94 1014.1
20260507221927 47 63 2.0 6.0 0.00 0.00 0.00 94 1014.4
20260507221424 47 32 6.0 9.0 0.00 0.00 0.00 94 1014.4
20260507220920 47 65 1.0 7.0 0.00 0.00 0.00 94 1014.1
20260507220418 47 62 2.0 6.0 0.00 0.00 0.00 94 1014.1
20260507215914 47 15 4.0 6.0 0.00 0.00 0.00 94 1014.2
20260507215411 47 75 1.0 8.0 0.00 0.00 0.00 94 1014.2
20260507214908 47 65 0.0 2.0 0.00 0.00 0.00 94 1014.1
20260507214406 47 45 6.0 9.0 0.00 0.00 0.00 94 1014.4
20260507213901 47 57 3.0 6.0 0.00 0.00 0.00 94 1014.2
20260507213358 47 68 2.0 6.0 0.00 0.00 0.00 94 1014.4
20260507212855 47 24 3.0 6.0 0.00 0.00 0.00 94 1014.1
20260507212351 47 32 3.0 6.0 0.00 0.00 0.00 94 1014.1
20260507211847 47 64 5.0 9.0 0.00 0.00 0.00 94 1014.1
20260507211344 47 11 5.0 7.0 0.00 0.00 0.00 94 1013.8
20260507210841 47 78 2.0 6.0 0.00 0.00 0.00 94 1013.7
20260507210338 47 33 4.0 8.0 0.00 0.00 0.00 95 1013.8
20260507205834 47 47 8.0 9.0 0.00 0.24 0.24 95 1013.7
20260507205332 47 73 4.0 14.0 0.00 0.24 0.24 95 1013.6
20260507204827 47 35 2.0 4.0 0.00 0.24 0.24 95 1013.5
20260507204325 47 47 4.0 9.0 0.00 0.24 0.24 95 1013.4
20260507203823 47 28 3.0 10.0 0.00 0.24 0.24 95 1013.5
20260507203321 47 41 4.0 7.0 0.00 0.24 0.24 95 1013.5
20260507202816 47 52 1.0 6.0 0.00 0.24 0.24 95 1013.5
20260507202313 47 49 3.0 11.0 0.00 0.24 0.24 95 1013.4
20260507201808 47 50 2.0 2.0 0.00 0.24 0.24 95 1013.3
20260507201305 47 36 4.0 6.0 0.00 0.24 0.24 95 1013.2
20260507200801 47 38 2.0 4.0 0.00 0.24 0.24 95 1013.3
20260507200257 47 2 4.0 6.0 0.00 0.24 0.24 95 1013.3
20260507195753 48 27 3.0 7.0 0.00 0.24 0.24 95 1013.1
20260507195251 48 44 4.0 8.0 0.00 0.24 0.24 95 1013.2
20260507194748 48 5 2.0 8.0 0.00 0.24 0.24 95 1013.4
20260507194244 48 61 4.0 7.0 0.00 0.24 0.24 95 1013.2
20260507193740 48 66 3.0 7.0 0.00 0.24 0.24 95 1013.1
20260507193237 48 52 2.0 6.0 0.00 0.24 0.24 95 1013.1
20260507192733 48 48 2.0 4.0 0.00 0.24 0.24 95 1013.0
20260507192230 48 94 2.0 8.0 0.00 0.24 0.24 95 1012.9
20260507191726 48 10 3.0 7.0 0.00 0.24 0.24 95 1012.7
20260507191223 48 357 4.0 8.0 0.00 0.24 0.24 95 1012.7
20260507190720 48 49 3.0 6.0 0.00 0.24 0.24 95 1012.7
20260507190219 48 39 3.0 8.0 0.00 0.24 0.24 95 1012.6
20260507185717 48 26 3.0 8.0 0.00 0.24 0.24 95 1012.7
20260507185213 48 338 6.0 8.0 0.00 0.24 0.24 95 1012.4
20260507184711 48 76 1.0 4.0 0.00 0.24 0.24 95 1012.4
20260507184209 48 49 2.0 3.0 0.00 0.24 0.24 95 1012.5
20260507183705 48 21 4.0 9.0 0.00 0.24 0.24 95 1012.5
20260507183202 49 56 3.0 8.0 0.00 0.24 0.24 95 1012.5
20260507182659 49 0 3.0 6.0 0.00 0.24 0.24 95 1012.4
20260507182149 49 23 3.0 4.0 0.00 0.24 0.24 95 1012.3
20260507181646 49 9 1.0 6.0 0.00 0.24 0.24 95 1012.3
20260507181142 49 17 2.0 4.0 0.00 0.24 0.24 95 1012.3
20260507180638 49 7 5.0 8.0 0.00 0.24 0.24 95 1012.0
20260507180136 49 86 0.0 8.0 0.00 0.24 0.24 95 1012.2
20260507175631 49 16 3.0 8.0 0.00 0.24 0.24 95 1012.1
20260507175129 50 51 6.0 13.0 0.00 0.24 0.24 95 1012.1
20260507174626 50 0 3.0 7.0 0.00 0.24 0.24 95 1012.2
20260507174124 50 298 3.0 4.0 0.00 0.24 0.24 95 1012.1
20260507173621 50 45 5.0 7.0 0.00 0.24 0.24 95 1011.9
20260507173118 50 56 1.0 6.0 0.00 0.24 0.24 95 1012.1
20260507172613 50 83 3.0 6.0 0.00 0.24 0.24 95 1012.0
20260507172111 50 31 5.0 8.0 0.00 0.24 0.24 95 1011.9
20260507171606 50 295 6.0 7.0 0.00 0.24 0.24 94 1011.8
20260507171103 50 31 3.0 8.0 0.00 0.24 0.24 94 1011.5
20260507170600 50 69 2.0 7.0 0.00 0.24 0.24 94 1011.6
20260507170057 50 66 4.0 7.0 0.00 0.24 0.24 94 1011.6
20260507165552 50 349 4.0 6.0 0.00 0.24 0.24 94 1011.5
20260507165049 50 76 2.0 4.0 0.00 0.24 0.24 94 1011.5
20260507164546 50 9 4.0 7.0 0.00 0.24 0.24 94 1011.4
20260507164043 51 40 4.0 8.0 0.00 0.24 0.24 94 1011.2
20260507163540 51 93 2.0 7.0 0.00 0.24 0.24 94 1011.3
20260507163038 51 29 5.0 8.0 0.00 0.24 0.24 94 1011.0
20260507162538 51 341 4.0 7.0 0.00 0.24 0.24 93 1011.0
20260507162035 51 294 4.0 7.0 0.00 0.24 0.24 93 1011.0
20260507161532 51 4 3.0 10.0 0.00 0.24 0.24 93 1011.1
20260507161028 51 312 5.0 11.0 0.00 0.24 0.24 93 1011.0
20260507160524 51 320 4.0 11.0 0.00 0.24 0.24 93 1011.0
20260507160021 52 3 4.0 11.0 0.00 0.24 0.24 92 1010.9
20260507155516 52 305 6.0 9.0 0.00 0.24 0.24 92 1011.0
20260507155014 52 305 9.0 10.0 0.00 0.24 0.24 92 1011.0
20260507154510 52 280 7.0 8.0 0.00 0.24 0.24 92 1011.1
20260507154009 52 275 3.0 9.0 0.00 0.24 0.24 91 1011.0
20260507153504 53 287 5.0 10.0 0.00 0.24 0.24 91 1011.0
20260507153000 53 275 7.0 9.0 0.00 0.24 0.24 91 1011.0
20260507152456 53 276 9.0 11.0 0.00 0.24 0.24 90 1010.8
20260507151953 54 306 6.0 10.0 0.00 0.24 0.24 89 1010.5
20260507151449 54 317 8.0 11.0 0.00 0.24 0.24 89 1010.5
20260507150946 55 301 6.0 9.0 0.00 0.24 0.24 89 1010.6
20260507150443 55 315 5.0 9.0 0.00 0.24 0.24 88 1010.5
20260507145939 56 351 9.0 10.0 0.00 0.24 0.24 86 1010.5
20260507145435 58 350 9.0 10.0 0.00 0.24 0.24 85 1010.4
20260507144932 58 327 4.0 7.0 0.00 0.24 0.24 85 1010.4
20260507144429 59 323 2.0 9.0 0.00 0.24 0.24 84 1010.2
20260507143926 59 301 6.0 8.0 0.00 0.24 0.24 83 1010.1
20260507143424 59 324 4.0 7.0 0.00 0.24 0.24 82 1010.2
20260507142920 60 343 2.0 9.0 0.00 0.24 0.24 82 1010.1
20260507142416 60 314 4.0 7.0 0.00 0.24 0.24 82 1009.8
20260507141913 60 67 4.0 7.0 0.00 0.24 0.24 82 1009.6
20260507141409 61 309 5.0 9.0 0.00 0.24 0.24 81 1009.6
20260507140906 61 344 6.0 8.0 0.00 0.24 0.24 80 1009.6
20260507140403 61 39 2.0 10.0 0.00 0.24 0.24 81 1009.5
20260507135901 61 332 4.0 6.0 0.00 0.24 0.24 81 1009.7
20260507135357 62 331 6.0 7.0 0.00 0.24 0.24 80 1009.8
20260507134855 61 306 4.0 6.0 0.00 0.24 0.24 81 1009.7
20260507134350 62 298 4.0 6.0 0.00 0.24 0.24 80 1009.6
20260507133847 62 19 4.0 6.0 0.00 0.24 0.24 81 1009.4
20260507133342 62 333 4.0 7.0 0.00 0.24 0.24 79 1009.5
20260507132841 63 22 3.0 8.0 0.00 0.24 0.24 78 1009.4
20260507132337 63 347 2.0 7.0 0.00 0.24 0.24 78 1009.4
20260507131834 62 20 3.0 4.0 0.00 0.24 0.24 79 1009.2
20260507131331 62 305 4.0 7.0 0.00 0.24 0.24 79 1009.3
20260507130828 63 318 6.0 10.0 0.00 0.24 0.24 77 1009.2
20260507130325 64 16 4.0 7.0 0.00 0.24 0.24 76 1009.1
20260507125824 64 66 4.0 7.0 0.00 0.24 0.24 78 1008.7
20260507125321 64 298 5.0 9.0 0.00 0.24 0.24 77 1008.7
20260507124818 63 41 2.0 6.0 0.00 0.24 0.24 78 1008.8
20260507124314 62 28 2.0 3.0 0.00 0.24 0.24 79 1008.6
20260507123813 63 332 4.0 7.0 0.00 0.24 0.24 79 1009.1
20260507123310 62 309 2.0 4.0 0.00 0.24 0.24 80 1008.9
20260507122806 62 46 4.0 4.0 0.00 0.24 0.24 80 1008.8
20260507122306 63 7 3.0 6.0 0.00 0.24 0.24 79 1008.9